EW7948 Weather Reports


time (UTC)temp
F
wind
direction
speed
knots
gust
knots
rain 1hr
in
rain 24hr
in
rain mn
in
humidity
%
barometer
mb
20260506011509 61 344 9.6 16.5 0.00 0.00 0.00 46 998.3
20260506010042 61 29 9.6 18.2 0.00 0.00 0.00 45 998.1
20260506004506 61 44 13.0 18.2 0.00 0.00 0.00 44 998.5
20260506003025 62 5 13.0 19.1 0.00 0.00 0.00 41 998.6
20260506001546 63 5 11.3 18.2 0.00 0.00 0.00 41 998.3
20260506000041 63 350 9.6 22.6 0.00 0.00 0.00 41 998.1
20260505234601 64 16 15.6 24.3 0.00 0.00 0.00 39 997.5
20260505233042 67 17 18.2 32.2 0.00 0.00 0.00 33 996.9
20260505231539 72 30 16.5 23.5 0.00 0.00 0.00 24 996.4
20260505230038 74 322 4.3 8.7 0.00 0.00 0.00 12 996.2
20260505224537 76 253 2.6 8.7 0.00 0.00 0.00 11 996.2
20260505223037 78 240 3.5 8.7 0.00 0.00 0.00 10 996.4
20260505221531 77 146 1.7 7.8 0.00 0.00 0.00 11 996.5
20260505220030 76 341 5.2 8.7 0.00 0.00 0.00 12 996.8
20260505214556 77 255 5.2 11.3 0.00 0.00 0.00 13 997.0
20260505213026 77 200 2.6 12.2 0.00 0.00 0.00 11 997.1
20260505211524 76 215 5.2 10.4 0.00 0.00 0.00 12 997.4
20260505210020 75 221 3.5 12.2 0.00 0.00 0.00 12 997.6
20260505204520 75 302 2.6 14.8 0.00 0.00 0.00 13 997.9
20260505203031 75 159 6.1 13.0 0.00 0.00 0.00 13 998.0
20260505201523 74 136 7.0 18.2 0.00 0.00 0.00 11 998.1
20260505200013 74 221 7.0 13.9 0.00 0.00 0.00 15 998.4
20260505194513 73 148 4.3 10.4 0.00 0.00 0.00 19 998.3
20260505193010 73 255 2.6 10.4 0.00 0.00 0.00 20 998.5
20260505191509 72 210 5.2 8.7 0.00 0.00 0.00 19 998.7
20260505190008 72 309 3.5 8.7 0.00 0.00 0.00 23 998.8
20260505184506 72 227 2.6 13.0 0.00 0.00 0.00 21 998.9
20260505183013 72 171 5.2 14.8 0.00 0.00 0.00 24 999.1
20260505181504 72 171 6.1 9.6 0.00 0.00 0.00 22 999.3
20260505180001 71 230 5.2 10.4 0.00 0.00 0.00 21 999.5
20260505174605 71 176 4.3 10.4 0.00 0.00 0.00 22 999.7
20260505173055 69 209 5.2 14.8 0.00 0.00 0.00 24 999.9
20260505171553 68 242 7.0 14.8 0.00 0.00 0.00 23 999.8
20260505170050 67 236 3.5 9.6 0.00 0.00 0.00 25 999.8
20260505164551 67 189 6.1 10.4 0.00 0.00 0.00 26 999.8
20260505163052 67 238 7.0 13.9 0.00 0.00 0.00 28 999.8
20260505161548 67 219 3.5 7.0 0.00 0.00 0.00 29 999.9
20260505153040 63 202 6.1 9.6 0.00 0.00 0.00 29 1000.1
20260505151535 60 84 2.6 3.5 0.00 0.00 0.00 38 1000.2
20260505124520 52 50 0.0 0.0 0.00 0.00 0.00 64 999.9
20260505123016 53 50 0.0 2.6 0.00 0.00 0.00 63 999.7
20260505121515 53 49 0.0 1.7 0.00 0.00 0.00 61 999.6
20260505120016 54 50 0.0 0.0 0.00 0.00 0.00 60 999.5
20260505114510 55 49 0.0 1.7 0.00 0.00 0.00 58 999.5
20260505113008 55 49 0.0 2.6 0.00 0.00 0.00 60 999.5
20260505111508 55 50 1.7 3.5 0.00 0.00 0.00 61 999.6
20260505101600 56 325 0.0 1.7 0.00 0.00 0.00 57 999.3
20260505100101 56 325 0.0 0.0 0.00 0.00 0.00 57 999.2
20260505094557 57 325 0.0 0.0 0.00 0.00 0.00 57 999.1
20260505093058 57 325 0.0 0.0 0.00 0.00 0.00 58 999.1
20260505091614 57 325 0.0 0.0 0.00 0.00 0.00 59 999.2
20260505090053 57 325 0.0 0.0 0.00 0.00 0.00 59 999.0
20260505084552 57 325 0.0 0.0 0.00 0.00 0.00 59 998.8
20260505083050 57 325 0.0 2.6 0.00 0.00 0.00 55 998.7
20260505081557 58 323 0.0 0.0 0.00 0.00 0.00 56 998.7
20260505080053 59 323 0.0 1.7 0.00 0.00 0.00 56 998.8
20260505074543 59 323 0.0 1.7 0.00 0.00 0.00 55 999.0
20260505073045 59 323 0.0 1.7 0.00 0.00 0.00 55 998.9
20260505071552 60 323 0.0 0.9 0.00 0.00 0.00 55 998.9
20260505070042 60 323 0.9 3.5 0.00 0.00 0.00 54 998.7
20260505064536 60 323 0.9 4.3 0.00 0.00 0.00 53 998.7
20260505063039 61 325 0.9 2.6 0.00 0.00 0.00 56 998.7
20260505061556 61 325 0.9 2.6 0.00 0.00 0.00 54 998.7
20260505060032 61 326 2.6 7.0 0.00 0.00 0.00 53 998.6
20260505054529 62 295 3.5 9.6 0.00 0.00 0.00 51 998.5
20260505053035 63 289 3.5 8.7 0.00 0.00 0.00 50 998.5
20260505051551 64 327 3.5 5.2 0.00 0.00 0.00 44 998.4
20260505041528 63 36 4.3 8.7 0.00 0.00 0.00 46 998.5
20260505040026 63 38 5.2 12.2 0.00 0.00 0.00 47 998.3
20260505034523 64 360 7.8 11.3 0.00 0.00 0.00 45 998.2
20260505033025 64 319 11.3 18.2 0.00 0.00 0.00 48 998.2
20260505031523 66 328 10.4 17.4 0.00 0.00 0.00 43 998.2
20260505030022 68 324 4.3 10.4 0.00 0.00 0.00 36 997.9
20260505024520 69 135 0.9 8.7 0.00 0.00 0.00 28 997.4
20260505023020 69 288 3.5 10.4 0.00 0.00 0.00 30 997.4
20260505021521 69 236 2.6 8.7 0.00 0.00 0.00 36 997.6
20260505020019 71 5 8.7 15.6 0.00 0.00 0.00 34 997.0
20260505014518 71 209 2.6 9.6 0.00 0.00 0.00 28 996.6
20260505013018 71 64 0.0 4.3 0.00 0.00 0.00 34 996.6